Home > Weather > Guangzhou > Past weeks

Flag for China Weather for the Past 2 Weeks in Guangzhou, Guangdong, China

Now
63 °F

Fog.


Feels Like: 63 °F
Forecast: 60 / 73 °F
Wind: No wind

Location: Canton Airport

Current Time: Feb 10, 2016 at 4:55:15 PM

Latest Report: Feb 10, 2016 at 4:30 PM


Visibility: 2 mi

Pressure: 29.95 "Hg

Humidity: 88%

Dew point: 59 °F

Location of GuangzhouLocation

Historic Weather in Guangzhou — Graph

°F

Guangzhou Temperature Yesterday

Maximum temperature yesterday: 73 °F (at 2:30 PM)
Minimum temperature yesterday: 45 °F (at 7:00 AM)
Average temperature yesterday: 58 °F

High & Low Weather Summary for the Past Weeks

 TemperatureHumidityPressure
High73 °F (Feb 8, 3:30 PM)100% (Jan 27, 1:00 AM)30.39 "Hg (Jan 27, 1:00 AM)
Low41 °F (Jan 26, 6:00 PM)16% (Feb 7, 12:30 PM)29.98 "Hg (Jan 28, 2:30 PM)
Average54 °F72%30.20 "Hg
* Reported Jan 26 3:00 PM — Feb 10 3:30 PM, Guangzhou, Weather by CustomWeather, © 2016

Note: Actual official high and low records may vary slightly from our data, if they occured in-between our weather recording intervals... More about our weather records

Advertising

Guangzhou Weather History for the Previous 24 Hours

 ConditionsComfort  
Time TempWeatherWind HumidityBarometerVisibility
3:30 PM
Wed, Feb 10
63 °FLight rain. Fog.1 mph88%29.98 "Hg2 mi
3:00 PM66 °FLight rain. Overcast.1 mph73%29.98 "Hg4 mi
2:30 PM66 °FOvercast.3 mph73%29.98 "Hg4 mi
2:00 PM66 °FOvercast.3 mph73%29.98 "Hg4 mi
1:30 PM66 °FOvercast.10 mph73%30.01 "Hg4 mi
1:00 PM70 °FOvercast.10 mph60%30.01 "Hg4 mi
12:30 PM68 °FOvercast.1 mph64%30.04 "Hg4 mi
12:00 PM68 °FOvercast.1 mph64%30.07 "Hg4 mi
11:30 AM66 °FScattered clouds.1 mph64%30.07 "Hg4 mi
11:00 AM66 °FScattered clouds.1 mph64%30.09 "Hg4 mi
10:30 AM64 °FPassing clouds.1 mph68%30.09 "Hg4 mi
10:00 AM63 °FPassing clouds.1 mph73%30.09 "Hg4 mi
9:30 AM61 °FScattered clouds.1 mph77%30.09 "Hg4 mi
8:30 AM57 °FClear.1 mph82%30.07 "Hg4 mi
8:00 AM57 °FScattered clouds.1 mph82%30.07 "Hg4 mi
7:30 AM55 °FOvercast.1 mph88%30.07 "Hg4 mi
7:00 AM55 °FPassing clouds.No wind88%30.07 "Hg4 mi
6:30 AM57 °FPassing clouds.1 mph82%30.07 "Hg4 mi
5:30 AM59 °FOvercast.No wind77%30.04 "Hg4 mi
5:00 AM57 °FOvercast.1 mph88%30.04 "Hg4 mi
4:30 AM59 °FOvercast.1 mph82%30.04 "Hg4 mi
4:00 AM59 °FOvercast.No wind82%30.04 "Hg4 mi
3:30 AM59 °FOvercast.3 mph77%30.04 "Hg4 mi
3:00 AM59 °FOvercast.1 mph77%30.04 "Hg4 mi
2:30 AM59 °FOvercast.1 mph77%30.07 "Hg4 mi
2:00 AM59 °FOvercast.3 mph77%30.07 "Hg4 mi
1:30 AM57 °FPassing clouds.1 mph82%30.07 "Hg4 mi
1:00 AM59 °FPassing clouds.1 mph77%30.09 "Hg4 mi
12:30 AM59 °FPassing clouds.1 mph77%30.09 "Hg4 mi
12:00 AM59 °FPassing clouds.1 mph77%30.07 "Hg4 mi
11:30 PM
Tue, Feb 9
59 °FPassing clouds.1 mph77%30.09 "Hg4 mi
11:00 PM59 °FPassing clouds.1 mph77%30.09 "Hg4 mi
10:30 PM59 °FPassing clouds.No wind77%30.09 "HgN/A
10:00 PM61 °FPassing clouds.1 mph72%30.09 "HgN/A
9:30 PM63 °FPassing clouds.No wind68%30.07 "HgN/A
9:00 PM63 °FPassing clouds.1 mph68%30.07 "HgN/A
8:30 PM63 °FClear.1 mph68%30.07 "Hg10 mi
8:00 PM63 °FClear.1 mph68%30.07 "Hg10 mi
7:30 PM64 °FClear.1 mph60%30.07 "Hg10 mi
6:30 PM66 °FClear.3 mph52%30.07 "Hg10 mi
5:30 PM72 °FSunny.8 mph47%30.07 "Hg10 mi
4:30 PM73 °FSunny.6 mph38%30.07 "Hg10 mi
4:00 PM73 °FSunny.1 mph36%30.07 "Hg10 mi
Weather by CustomWeather, © 2016

See weather overviewHow to use our weather pages